Location: Wells
(51.2093°N, 2.6446°W)
Time: 06:10:00
(UTC+01:00)

ITUPSAT 1 - Pass Details

Date: 17 March 2026
Orbit: 686 x 698 km, 98.4° (Epoch: 15 April)

Event Time Altitude Azimuth Distance (km) Brightness Sun altitude
Rises 00:48:52 0° 8° (N) 3,076 ? -39.8°
Reaches altitude 10° 00:51:19 10° 358° (N) 2,153 ? -39.7°
Enters shadow 00:52:04 14° 353° (N) 1,892 ? -39.7°
